When you browse on this site, cookies collect data to enhance your experience and personalize the content and advertising you see.
Visit our Privacy Policy to learn more. By continuing to use the site, you agree to this use of cookies and data.
  • In Österreich
  • Länderverzeichnis
  • Für 7 Tage
  • Wassertemperatur
  • Wetterkarte
  • News
  • Widgets
  • user-avatar
    Anmelden

    Stündliche Wetter Port-au-Princ

    Heute, 20 Januar, Montag

    Zeit Temperatur Niederschläge Wind Luftdruck Luftfeuchtigkeit
    00:00 +23°C° 0 mm 2 m/S 737 mmHg 83%
    01:00 +23°C° 0 mm 2 m/S 737 mmHg 81%
    02:00 +23°C° 0 mm 2 m/S 736 mmHg 82%
    03:00 +21°C° 0 mm 2 m/S 736 mmHg 82%
    04:00 +21°C° 0 mm 2 m/S 736 mmHg 82%
    05:00 +21°C° 0 mm 2 m/S 736 mmHg 81%
    06:00 +23°C° 0 mm 2 m/S 737 mmHg 80%
    07:00 +23°C° 0 mm 2 m/S 737 mmHg 77%
    08:00 +25°C° 0 mm 2 m/S 737 mmHg 69%
    09:00 +27°C° 0 mm 2 m/S 738 mmHg 62%
    10:00 +29°C° 0 mm 2 m/S 738 mmHg 54%
    11:00 +29°C° 0 mm 2 m/S 737 mmHg 52%
    12:00 +30°C° 0 mm 2 m/S 737 mmHg 50%
    13:00 +31°C° 0 mm 2 m/S 736 mmHg 49%
    14:00 +30°C° 0 mm 2 m/S 736 mmHg 53%
    15:00 +29°C° 0 mm 2 m/S 735 mmHg 58%
    16:00 +28°C° 0 mm 1 m/S 735 mmHg 62%
    17:00 +27°C° 0 mm 1 m/S 735 mmHg 67%
    18:00 +26°C° 0 mm 1 m/S 735 mmHg 71%
    19:00 +23°C° 0 mm 0 m/S 736 mmHg 76%
    20:00 +23°C° 0 mm 0 m/S 736 mmHg 78%
    21:00 +22°C° 0 mm 0 m/S 736 mmHg 79%
    22:00 +22°C° 0 mm 0 m/S 736 mmHg 81%
    23:00 +22°C° 0 mm 0 m/S 736 mmHg 81%

    Morgen, 21 Januar, Dienstag

    Zeit Temperatur Niederschläge Wind Luftdruck Luftfeuchtigkeit
    00:00 +23°C° 0 mm 1 m/S 736 mmHg 82%
    01:00 +23°C° 0 mm 1 m/S 735 mmHg 83%
    02:00 +23°C° 0 mm 1 m/S 735 mmHg 83%
    03:00 +23°C° 0 mm 1 m/S 735 mmHg 82%
    04:00 +23°C° 0 mm 1 m/S 735 mmHg 82%
    05:00 +23°C° 0 mm 1 m/S 735 mmHg 80%
    06:00 +23°C° 0 mm 1 m/S 735 mmHg 79%
    07:00 +23°C° 0 mm 1 m/S 735 mmHg 78%
    08:00 +25°C° 0 mm 1 m/S 736 mmHg 72%
    09:00 +27°C° 0 mm 1 m/S 736 mmHg 66%
    10:00 +28°C° 0 mm 1 m/S 736 mmHg 61%
    11:00 +29°C° 0.1 mm 1 m/S 736 mmHg 60%
    12:00 +29°C° 0.1 mm 1 m/S 735 mmHg 59%
    13:00 +29°C° 0.1 mm 1 m/S 734 mmHg 58%
    14:00 +29°C° 0.3 mm 2 m/S 734 mmHg 61%
    15:00 +28°C° 0.3 mm 2 m/S 734 mmHg 64%
    16:00 +28°C° 0.3 mm 2 m/S 734 mmHg 67%
    17:00 +27°C° 1 mm 2 m/S 734 mmHg 72%
    18:00 +26°C° 1 mm 2 m/S 734 mmHg 77%
    19:00 +25°C° 1 mm 1 m/S 735 mmHg 82%
    20:00 +25°C° 0.6 mm 1 m/S 735 mmHg 82%
    21:00 +24°C° 0.6 mm 1 m/S 735 mmHg 83%
    22:00 +22°C° 0.6 mm 0 m/S 735 mmHg 84%
    23:00 +22°C° 0.2 mm 0 m/S 735 mmHg 84%

    übermorgen, 22 Januar, Mittwoch

    Zeit Temperatur Niederschläge Wind Luftdruck Luftfeuchtigkeit
    00:00 +24°C° 0.2 mm 1 m/S 735 mmHg 84%
    01:00 +23°C° 0.2 mm 1 m/S 734 mmHg 85%
    02:00 +23°C° 0.1 mm 1 m/S 734 mmHg 85%
    03:00 +21°C° 0.1 mm 0 m/S 734 mmHg 86%
    04:00 +21°C° 0.1 mm 0 m/S 734 mmHg 87%
    05:00 +21°C° 0 mm 0 m/S 734 mmHg 86%
    06:00 +21°C° 0 mm 0 m/S 734 mmHg 86%
    07:00 +23°C° 0 mm 1 m/S 734 mmHg 86%
    08:00 +24°C° 0 mm 1 m/S 735 mmHg 79%
    09:00 +26°C° 0 mm 1 m/S 735 mmHg 73%
    10:00 +27°C° 0 mm 1 m/S 735 mmHg 66%
    11:00 +27°C° 0.1 mm 2 m/S 735 mmHg 66%
    12:00 +28°C° 0.1 mm 2 m/S 734 mmHg 65%
    13:00 +28°C° 0.1 mm 2 m/S 734 mmHg 64%
    14:00 +28°C° 0.5 mm 2 m/S 733 mmHg 67%
    15:00 +27°C° 0.5 mm 2 m/S 733 mmHg 70%
    16:00 +27°C° 0.5 mm 2 m/S 733 mmHg 73%
    17:00 +26°C° 0.5 mm 2 m/S 733 mmHg 78%
    18:00 +25°C° 0.5 mm 2 m/S 733 mmHg 83%
    19:00 +24°C° 0.5 mm 2 m/S 734 mmHg 88%
    20:00 +24°C° 0.3 mm 1 m/S 734 mmHg 88%
    21:00 +24°C° 0.3 mm 1 m/S 734 mmHg 89%
    22:00 +22°C° 0.3 mm 0 m/S 735 mmHg 89%
    23:00 +21°C° 0.2 mm 0 m/S 734 mmHg 89%

    23 Januar, Donnerstag

    Zeit Temperatur Niederschläge Wind Luftdruck Luftfeuchtigkeit
    00:00 +23°C° 0.2 mm 1 m/S 734 mmHg 89%
    01:00 +23°C° 0.2 mm 1 m/S 734 mmHg 90%
    02:00 +23°C° 0.1 mm 1 m/S 734 mmHg 90%
    03:00 +23°C° 0.1 mm 1 m/S 733 mmHg 90%
    04:00 +23°C° 0.1 mm 2 m/S 733 mmHg 90%
    05:00 +23°C° 0.1 mm 2 m/S 733 mmHg 90%
    06:00 +23°C° 0.1 mm 2 m/S 734 mmHg 90%
    07:00 +23°C° 0.1 mm 2 m/S 734 mmHg 90%
    08:00 +23°C° 0.1 mm 1 m/S 735 mmHg 87%
    09:00 +24°C° 0.1 mm 1 m/S 735 mmHg 85%
    10:00 +24°C° 0.1 mm 1 m/S 735 mmHg 82%
    11:00 +25°C° 0.1 mm 2 m/S 735 mmHg 80%
    12:00 +25°C° 0.1 mm 2 m/S 734 mmHg 78%
    13:00 +26°C° 0.1 mm 3 m/S 734 mmHg 76%
    14:00 +25°C° 0.1 mm 3 m/S 734 mmHg 77%
    15:00 +25°C° 0.1 mm 2 m/S 733 mmHg 78%
    16:00 +25°C° 0.1 mm 2 m/S 733 mmHg 79%
    17:00 +24°C° 0 mm 2 m/S 733 mmHg 82%
    18:00 +23°C° 0 mm 2 m/S 734 mmHg 84%
    19:00 +23°C° 0 mm 1 m/S 734 mmHg 86%
    20:00 +23°C° 0 mm 1 m/S 734 mmHg 86%
    21:00 +23°C° 0 mm 1 m/S 735 mmHg 85%
    22:00 +21°C° 0 mm 0 m/S 735 mmHg 85%
    23:00 +20°C° 0 mm 0 m/S 735 mmHg 85%

    24 Januar, Freitag

    Zeit Temperatur Niederschläge Wind Luftdruck Luftfeuchtigkeit
    00:00 +20°C° 0 mm 0 m/S 735 mmHg 85%
    01:00 +20°C° 0 mm 0 m/S 734 mmHg 85%
    02:00 +20°C° 0 mm 0 m/S 734 mmHg 86%
    03:00 +19°C° 0 mm 0 m/S 734 mmHg 86%
    04:00 +21°C° 0 mm 1 m/S 734 mmHg 86%
    05:00 +21°C° 0 mm 1 m/S 734 mmHg 85%
    06:00 +21°C° 0 mm 1 m/S 735 mmHg 85%
    07:00 +21°C° 0 mm 1 m/S 735 mmHg 84%
    08:00 +23°C° 0 mm 1 m/S 736 mmHg 79%
    09:00 +25°C° 0 mm 1 m/S 736 mmHg 73%
    10:00 +26°C° 0 mm 1 m/S 737 mmHg 67%
    11:00 +27°C° 0 mm 1 m/S 737 mmHg 66%
    12:00 +27°C° 0 mm 2 m/S 736 mmHg 65%
    13:00 +28°C° 0 mm 2 m/S 736 mmHg 64%
    14:00 +27°C° 0.1 mm 2 m/S 735 mmHg 66%
    15:00 +27°C° 0.1 mm 2 m/S 735 mmHg 69%
    16:00 +26°C° 0.1 mm 2 m/S 735 mmHg 72%
    17:00 +25°C° 0.1 mm 2 m/S 735 mmHg 77%
    18:00 +24°C° 0.1 mm 2 m/S 736 mmHg 83%
    19:00 +23°C° 0.1 mm 1 m/S 736 mmHg 88%
    20:00 +23°C° 0.1 mm 1 m/S 736 mmHg 87%
    21:00 +23°C° 0.1 mm 1 m/S 737 mmHg 87%
    22:00 +23°C° 0.1 mm 1 m/S 737 mmHg 86%
    23:00 +23°C° 0.1 mm 1 m/S 737 mmHg 87%

    25 Januar, Samstag

    Zeit Temperatur Niederschläge Wind Luftdruck Luftfeuchtigkeit
    00:00 +23°C° 0.1 mm 1 m/S 736 mmHg 88%
    01:00 +22°C° 0.1 mm 1 m/S 736 mmHg 89%
    02:00 +22°C° 0 mm 1 m/S 736 mmHg 89%
    03:00 +22°C° 0 mm 1 m/S 736 mmHg 89%
    04:00 +21°C° 0 mm 1 m/S 736 mmHg 90%
    05:00 +22°C° 0 mm 1 m/S 736 mmHg 89%
    06:00 +22°C° 0 mm 1 m/S 736 mmHg 87%
    07:00 +22°C° 0 mm 1 m/S 737 mmHg 86%
    08:00 +23°C° 0 mm 1 m/S 737 mmHg 80%
    09:00 +25°C° 0 mm 1 m/S 738 mmHg 74%
    10:00 +27°C° 0 mm 1 m/S 738 mmHg 68%
    11:00 +27°C° 0 mm 1 m/S 737 mmHg 66%
    12:00 +27°C° 0 mm 2 m/S 737 mmHg 65%
    13:00 +28°C° 0 mm 2 m/S 736 mmHg 64%
    14:00 +28°C° 0.1 mm 2 m/S 736 mmHg 66%
    15:00 +27°C° 0.1 mm 2 m/S 736 mmHg 68%
    16:00 +27°C° 0.1 mm 2 m/S 735 mmHg 70%
    17:00 +26°C° 0.1 mm 2 m/S 736 mmHg 75%
    18:00 +25°C° 0.1 mm 1 m/S 736 mmHg 80%
    19:00 +24°C° 0.1 mm 1 m/S 736 mmHg 85%
    20:00 +23°C° 0.2 mm 1 m/S 737 mmHg 85%
    21:00 +21°C° 0.2 mm 0 m/S 737 mmHg 85%
    22:00 +21°C° 0.2 mm 0 m/S 737 mmHg 86%
    23:00 +21°C° 0.1 mm 0 m/S 737 mmHg 86%
    Mehr zeigen